Skip Page Navigation
NASA JPL Caltech
NASA Logo - Jet Propulsion Laboratory + View the NASA Portal
+ Near-Earth Object (NEO) Program
Search JPL
JPL Home Earth Solar System Stars & Galaxies Technology
JPL Solar System Dynamics
BODIES ORBITS EPHEMERIDES TOOLS PHYSICAL DATA DISCOVERY FAQ SITE MAP
JPL Small-Body Database Browser
Search: [ help ]  
81790 Lewislove (2000 JL84)
Classification: Main-belt Asteroid          SPK-ID: 2081790
Ephemeris | Orbit Diagram | Orbital Elements | Physical Parameters | Discovery Circumstances ]

[ show orbit diagram ]
Orbital Elements at Epoch 2456400.5 (2013-Apr-18.0) TDB
Reference: JPL 1 (heliocentric ecliptic J2000)
 Element Value Uncertainty (1-sigma)   Units 
e .01498432277672195 6.9281e-08  
a 2.625274317275239 3.661e-08 AU
q 2.585936359527749 1.951e-07 AU
i .7220225958710832 7.0835e-06 deg
node 301.414772367771 0.00060038 deg
peri 312.7796405306622 0.0006805 deg
M 336.2111229946412 0.00032145 deg
tp 2456503.167243511969
(2013-Jul-29.66724351)
0.0013875 JED
period 1553.676016567863
4.25
3.25e-05
8.898e-08
d
yr
n .2317085390783436 4.8469e-09 deg/d
Q 2.664612275022729 3.7159e-08 AU
  Orbit Determination Parameters
   # obs. used (total)      369  
   data-arc span      7132 days (19.53 yr)  
   first obs. used      1993-10-12  
   last obs. used      2013-04-22  
   planetary ephem.      DE405  
   SB-pert. ephem.      SB405-CPV-2  
   condition code      0  
   fit RMS      .60783  
   data source      ORB  
   producer      Otto Matic  
   solution date      2013-Apr-29 17:36:49  

Additional Information
 Earth MOID = 1.57106 AU 
 T_jup = 3.402 
[ show covariance matrix ]

Ephemeris | Orbit Diagram | Orbital Elements | Physical Parameters | Discovery Circumstances ]

Physical Parameter Table
Parameter Symbol Value Units Sigma Reference Notes
absolute magnitude H 15.575 mag .56435 1 autocmod 2.5c

81790 Lewislove           Discovered 2000 May 2 by L. Wasserman at the Anderson Mesa Station of the Lowell Observatory.
Lewis E. Love (b. 1928), beloved physics teacher at Great Neck North High School from 1959 to 1997, inspired his students (including the discoverer) with his joy of teaching and love of physics. Although formally retired, he is now teaching elementary-school teachers how to teach science.
NOTE: some special characters may not display properly (any characters within {} are an attempt to place the proper accent above a character)
Reference: 20070730/MPCPages.arcLast Updated: 2007-08-07
Ephemeris | Orbit Diagram | Orbital Elements | Physical Parameters | Discovery Circumstances ]
ABOUT SSD CREDITS/AWARDS PRIVACY/COPYRIGHT GLOSSARY LINKS
FirstGov 2013-Jun-20 08:25 UT
(server date/time)  
NASA Home Page
Site Manager:   Donald K. Yeomans
Webmaster  Alan B. Chamberlin